Flag for Germany Weather past 2 weeks in Mainz, Rhineland-Palatinate, Germany

Now
41 °F

Mostly cloudy.


Feels Like: 34 °F
Forecast: 38 / 46 °F
Wind: 13 mph from Southwest

Location: Wiesbaden Airport

Current Time: Apr 1, 2015 at 1:03:03 AM

Latest Report: Mar 31, 2015 at 11:58 PM


Visibility: N/A

Pressure: 29.85 "Hg

Humidity: 87%

Dew point: 37 °F

Location of MainzLocation

Historic Weather in Mainz — Graph

°F

Mainz temperature yesterday

Maximum temperature yesterday: 57 °F (at 9:58 AM)
Minimum temperature yesterday: 39 °F (at 10:58 PM)
Average temperature yesterday: 49 °F

Past Weeks' High & Low Weather Summary

 TemperatureHumidityPressure
High66 °F (Mar 18, 3:58 PM)100% (Mar 20, 3:58 AM)30.31 "Hg (Mar 20, 3:58 AM)
Low31 °F (Mar 23, 4:58 AM)40% (Mar 18, 3:58 PM)29.39 "Hg (Mar 29, 9:58 PM)
Average47 °F73%29.97 "Hg
* Reported Mar 16 10:58 PM — Mar 31 11:58 PM, Mainz, Weather by CustomWeather, © 2015

Note: Actual official high and low records may vary slightly from our data, if they occured in-between our weather recording intervals... More about our weather records

Advertising

Mainz weather history for previous 24 hours

 ConditionsComfort  
Time TempWeatherWind HumidityBarometerVisibility
11:58 PM
Tue, Mar 31
41 °FMostly cloudy.13 mph87%29.85 "HgN/A
10:58 PM39 °FPartly cloudy.10 mph93%29.86 "HgN/A
10:04 PM45 °FStrong thunderstorms. Partly cloudy.28 mph76%29.86 "Hg2 mi
9:58 PM46 °FThunderstorms. Partly cloudy.33 mph57%29.85 "Hg6 mi
8:58 PM46 °FClear.12 mph57%29.81 "HgN/A
8:02 PM48 °FLight rain. Scattered clouds.26 mph50%29.79 "HgN/A
6:58 PM51 °FPassing clouds.25 mph45%29.76 "HgN/A
5:58 PM54 °FBroken clouds.18 mph44%29.72 "HgN/A
4:58 PM52 °FPassing clouds.20 mph58%29.68 "HgN/A
3:58 PM48 °FScattered clouds.25 mph71%29.66 "HgN/A
3:00 PM48 °FBroken clouds.16 mph82%29.62 "HgN/A
2:01 PM48 °FLight rain. More clouds than sun.28 mph76%29.59 "Hg5 mi
12:58 PM53 °FLight rain. Broken clouds.26 mph69%29.55 "HgN/A
11:58 AM57 °FMostly cloudy.29 mph55%29.50 "HgN/A
10:58 AM56 °FPartly sunny.29 mph65%29.48 "HgN/A
9:58 AM57 °FScattered clouds.29 mph59%29.45 "HgN/A
9:03 AM55 °FScattered clouds.28 mph67%29.42 "HgN/A
8:04 AM54 °FLight rain. Overcast.17 mph88%29.40 "HgN/A
8:01 AM54 °FLight rain. Fog.20 mph88%29.40 "Hg6 mi
6:58 AM55 °FOvercast.21 mph72%29.40 "HgN/A
5:58 AM52 °FOvercast.16 mph86%29.43 "HgN/A
4:58 AM49 °FOvercast.18 mph90%29.51 "HgN/A
3:58 AM46 °FOvercast.12 mph89%29.57 "HgN/A
2:58 AM45 °FOvercast.12 mph79%29.64 "HgN/A
1:58 AM44 °FOvercast.10 mph81%29.72 "HgN/A
Weather by CustomWeather, © 2015

See weather overviewHow to use our weather pages